{"data":{"norad_id":68779,"epoch":"2026-09-19T20:04:05.589984Z","epoch_age_seconds":97265,"freshness":"FRESH","line1":"1 68779U 26086P   26262.83617581  .00018222  00000+0  56500-3 0  9999","line2":"2 68779  97.2863 298.2808 0001303 103.7693 256.3695 15.33467553 23583","mean_motion":15.33467553,"eccentricity":0.0001303,"inclination_deg":97.2863,"raan_deg":298.2808,"arg_perigee_deg":103.7693,"mean_anomaly_deg":256.3695,"bstar":0.000565,"rev_number":2358,"period_min":93.904823560359,"perigee_km":464.58435065645,"apogee_km":466.36779622339,"semimajor_km":6843.6130734399,"source":"CELESTRAK","updated_at":"2026-09-20T09:00:44.000724Z"}}